RH
90 88 85 84 86 81 83 93 95 93 97 96 92 92 95 95 98 97 93 55 58 88 91 100 99 83 74 90 76 61 40 42 61 79 85 72 58 59 69 54 53 62 53 46 45 45 46
86 78 85 78 82 91 96 96 92 80 80 95 93 94 91 95 96 96 88 78 97 62 96 100 96 88 78 85 65 69 57 59 61 84 76 64 57 55 57 53 58 51 51 53 51 52 52
88 86 79 83 94 92 85 93 92 86 83 93 92 94 90 90 91 90 93 71 92 40 88 98 94 95 83 64 66 69 66 55 72 76 74 62 58 58 62 65 54 53 70 61 57 53 61
97 98 98 98 96 98 92 90 96 93 87 93 92 94 89 84 92 82 49 60 85 53 73 99 98 94 92 70 72 70 66 68 68 69 69 67 60 65 63 61 66 75 82 95 60 57 60
99 99 99 99 99 98 97 98 97 98 83 82 84 61 71 96 80 67 22 52 89 81 98 100 91 92 87 76 72 74 74 70 70 72 70 71 72 75 67 84 82 83 98 94 70 53 60
93 97 98 97 91 98 100 100 100 98 84 80 78 71 68 93 79 54 37 54 100 99 98 99 96 99 85 80 74 76 75 72 67 68 69 83 80 81 72 83 90 85 97 88 79 69 65
94 100 100 96 92 100 90 100 98 89 84 73 74 83 59 94 79 48 61 50 97 100 96 90 91 75 73 75 71 75 75 72 71 71 76 72 90 95 80 75 72 81 80 84 74 61 64
99 96 77 94 100 99 100 98 98 97 87 77 69 64 66 80 66 67 85 97 100 100 98 93 93 82 74 70 78 77 68 75 67 81 70 93 96 69 68 72 77 82 96 88 74 60 72
93 59 91 90 90 79 93 96 93 87 77 75 72 77 73 70 76 69 78 96 98 100 99 96 97 81 74 69 70 76 73 78 74 76 76 85 65 60 70 81 96 88 86 89 87 64 78
80 54 91 89 90 79 86 86 83 79 79 80 76 72 68 76 74 60 91 88 99 99 100 98 96 86 75 68 70 71 66 72 69 67 65 70 57 62 63 75 87 94 61 78 79 94 98
75 72 72 91 89 88 89 94 81 76 75 74 72 75 75 83 78 89 95 83 100 99 96 92 81 76 73 73 76 80 71 72 75 65 79 83 78 84 91 76 71 80 70 77 90 99 100
79 97 96 94 95 92 90 84 83 84 85 82 84 81 77 76 81 88 90 90 95 98 97 99 84 79 78 71 82 82 82 77 86 91 77 86 72 78 80 75 76 69 74 78 85 96 99
81 92 95 96 98 94 92 85 96 100 98 99 94 85 79 76 80 78 74 98 96 97 97 94 96 72 65 74 84 76 86 94 96 97 99 93 91 85 82 92 77 85 93 98 98 99 98
68 59 94 95 97 94 96 98 93 98 97 82 90 94 69 66 66 65 72 96 96 100 96 65 68 70 96 67 74 73 90 98 95 95 99 100 95 97 88 91 88 88 95 99 96 97 98
46 33 95 100 97 99 99 98 99 87 91 80 91 90 81 78 73 64 79 98 99 100 83 65 72 98 95 68 66 81 97 99 92 82 99 100 98 80 85 77 68 81 99 81 100 100 97
41 32 90 98 93 96 99 100 98 86 89 84 93 91 99 75 76 81 89 99 100 80 68 57 70 70 74 74 96 98 98 85 89 77 77 88 100 81 69 68 62 72 60 83 94 96 97
33 31 63 89 53 65 92 92 76 74 68 74 79 77 93 95 85 83 98 99 90 75 70 65 66 58 62 85 95 92 77 64 57 58 66 78 94 74 72 65 68 69 68 57 56 73 88
28 30 26 76 48 60 71 80 66 68 56 68 77 97 95 91 92 98 94 88 85 82 70 68 56 52 49 52 62 69 79 72 57 54 62 55 68 89 64 53 51 57 62 55 75 68 76
20 31 23 43 47 59 62 70 69 70 81 86 98 91 90 95 97 95 71 75 80 88 83 76 55 45 39 45 69 61 68 58 57 58 58 54 71 92 76 60 55 62 56 51 51 68 80
17 29 26 43 50 57 64 59 54 63 74 87 87 92 79 80 80 79 79 82 88 72 84 70 57 39 41 60 58 63 64 56 54 52 55 59 69 76 91 70 69 68 60 55 64 81 81
18 27 24 37 56 62 76 74 53 52 64 81 85 91 92 96 86 86 81 84 90 88 71 66 51 56 50 68 58 60 55 54 49 45 48 56 76 75 56 54 54 62 65 64 62 59 70
37 23 21 34 67 70 75 83 72 52 62 86 87 84 74 87 82 89 86 90 79 67 67 71 72 65 64 72 65 66 57 62 62 54 52 59 78 72 63 58 56 62 60 64 65 55 60
43 15 27 20 63 70 77 77 88 67 54 86 93 91 98 88 88 88 86 77 74 69 60 67 69 68 74 72 66 58 45 48 49 53 60 61 76 87 80 62 59 61 59 60 61 60 52
55 12 30 16 54 72 80 86 82 83 71 74 86 89 94 82 69 79 75 71 72 68 76 70 67 68 61 57 49 45 44 47 48 56 52 60 69 87 89 73 75 59 43 46 55 54 58
60 10 30 15 59 79 81 79 77 83 74 75 85 87 88 69 59 74 67 68 62 66 69 74 66 65 66 61 64 61 64 54 53 52 53 55 67 83 86 90 54 50 46 46 49 52 53
66 8 33 17 64 76 78 74 69 66 70 69 79 86 78 88 74 75 74 71 68 85 79 69 60 61 62 76 66 64 80 63 63 55 46 50 56 74 74 76 55 50 43 38 40 64 52
68 7 32 20 68 74 71 72 66 69 69 68 74 80 72 80 72 72 81 85 76 83 87 72 68 59 60 86 75 70 77 55 70 62 67 70 69 76 76 76 65 46 45 42 56 55 52
66 8 32 27 67 72 74 78 77 79 87 78 70 67 75 76 75 70 72 78 78 80 87 72 71 70 80 80 78 73 68 65 64 55 59 70 71 76 69 74 70 44 47 55 51 55 54
72 9 30 26 69 74 77 85 86 78 70 74 77 69 66 71 72 72 74 73 74 76 79 75 76 79 76 93 81 76 69 69 65 67 59 63 66 66 64 65 48 43 46 45 47 53 56
Wind_Speed
31 29 27 26 27 26 26 24 22 22 21 20 23 21 24 23 23 25 22 18 19 21 10 19 18 13 12 7 7 10 10 12 5 12 11 11 10 10 5 5 11 12 12 16 18 18 21
31 30 30 28 27 28 26 23 23 23 21 20 21 20 23 24 24 26 24 20 20 24 20 16 17 12 13 6 5 15 13 8 7 15 12 11 6 9 4 4 3 10 17 19 19 23 23
33 33 31 30 30 26 27 23 21 22 21 21 20 20 19 21 23 26 25 21 24 21 20 19 15 15 12 6 6 11 9 7 13 8 10 7 9 5 3 6 11 14 11 14 18 22 14
39 40 40 37 35 30 28 26 23 21 19 19 22 20 20 21 22 26 26 22 19 15 19 21 18 14 4 12 19 11 11 13 11 12 11 9 6 6 9 10 10 7 4 5 3 3 9
45 47 48 52 46 40 30 26 19 18 21 18 19 20 19 21 21 25 25 21 6 10 21 22 14 12 5 13 19 15 7 9 6 6 6 5 5 5 4 5 5 5 5 6 10 3 7
50 51 52 52 48 58 34 16 11 17 19 18 18 19 18 20 20 22 21 20 5 19 18 18 17 10 7 9 13 17 11 9 11 7 6 5 5 2 5 6 6 5 5 6 10 5 10
51 48 44 45 42 29 25 14 11 14 16 20 19 19 18 19 19 17 15 14 7 7 17 3 12 2 13 19 18 16 15 13 9 8 6 9 3 9 13 13 14 7 12 15 18 18 18
32 44 51 34 28 20 23 16 12 16 18 19 19 18 17 17 18 9 12 7 8 8 4 8 10 6 22 17 9 12 13 9 10 7 9 3 10 14 12 12 16 14 14 17 20 14 10
49 51 38 35 32 27 22 19 19 18 19 18 18 17 17 19 6 7 7 8 17 5 2 8 9 14 14 11 8 20 18 8 6 8 9 8 5 4 14 12 11 12 13 14 16 13 11
48 38 32 30 28 23 23 23 21 19 19 18 17 17 16 17 6 6 3 12 13 9 3 5 8 6 9 6 0 16 16 4 5 6 7 8 10 13 10 13 8 10 9 11 12 8 3
50 33 30 28 30 28 28 26 26 22 20 16 14 12 11 12 5 6 11 9 3 2 4 2 5 10 13 4 16 6 11 5 5 4 2 4 4 4 4 5 4 7 9 12 14 6 3
41 31 31 28 28 26 28 28 25 22 18 15 12 10 9 7 4 3 9 4 1 1 5 4 5 5 6 4 5 7 3 4 3 3 6 9 5 2 3 8 8 11 10 14 12 4 3
38 32 28 26 27 29 30 30 30 27 26 19 13 8 7 6 5 6 7 5 2 3 2 3 5 9 7 5 5 6 5 4 3 3 3 1 1 3 5 5 2 5 3 3 2 2 1
37 34 27 27 29 30 32 32 34 32 21 12 3 1 5 2 2 6 7 2 5 5 7 7 6 8 3 7 4 7 4 2 4 3 2 3 1 2 5 5 1 3 2 3 4 2 2
37 35 26 27 30 30 32 34 34 25 18 14 17 21 14 7 5 6 4 4 4 5 3 5 7 2 2 4 1 3 3 3 4 7 4 2 3 4 10 5 3 1 2 4 3 3 0
35 34 26 27 29 31 33 34 31 20 17 24 25 29 20 14 9 7 4 5 5 8 4 3 2 5 4 2 2 2 2 4 3 11 8 5 2 5 5 5 6 6 4 2 1 4 3
33 33 26 27 29 31 33 33 30 13 9 4 10 11 11 9 9 8 4 3 3 7 10 5 6 2 6 5 4 3 3 1 5 2 9 4 2 5 1 1 3 3 4 3 2 4 1
31 31 27 25 26 28 30 30 28 17 6 8 12 4 9 11 6 2 3 4 8 7 10 4 2 6 3 3 2 3 3 2 11 4 2 4 2 2 2 3 5 4 6 1 3 6 3
30 28 26 24 24 26 27 27 25 20 13 12 6 5 10 9 3 3 3 4 5 6 5 6 6 4 3 3 4 4 4 3 6 2 1 4 3 2 7 5 5 4 7 4 2 3 6
28 27 25 22 22 24 25 22 22 17 10 10 3 3 5 7 8 2 2 5 5 7 5 4 4 3 3 6 6 2 2 2 5 1 1 1 4 2 4 4 4 6 11 13 5 5 3
26 26 25 23 20 22 24 22 18 15 12 4 5 2 2 2 6 5 3 3 5 6 4 6 6 8 4 6 3 4 2 2 4 9 4 4 4 4 4 4 4 5 7 13 8 5 4
25 24 23 21 18 18 21 20 18 13 13 12 4 2 4 2 6 5 5 5 6 5 4 6 6 7 9 6 4 4 4 5 2 6 4 4 0 3 6 7 7 5 12 10 10 9 7
23 22 22 20 19 20 19 20 16 12 10 8 6 6 2 3 4 2 3 3 4 7 5 8 5 4 8 7 15 11 8 6 5 3 4 2 3 2 2 4 5 5 6 6 3 6 3
22 21 22 21 18 20 19 16 13 7 6 10 7 4 3 2 1 1 2 5 4 6 3 6 12 4 4 13 8 2 7 9 10 8 7 3 2 2 2 3 4 5 2 2 5 6 6
20 19 19 20 19 20 22 15 7 2 2 4 8 4 3 2 3 2 1 3 11 1 3 3 5 6 11 7 3 2 3 4 3 3 6 3 2 2 3 2 2 3 2 1 2 2 4
19 17 18 18 17 20 18 12 5 4 5 6 7 6 3 0 2 4 4 3 1 3 5 4 5 8 10 2 3 2 1 2 3 5 4 4 4 3 1 3 3 3 0 3 2 3 4
16 16 16 15 16 18 13 10 4 5 6 7 6 4 2 2 2 3 2 1 3 2 2 4 6 6 8 3 3 1 2 1 2 3 2 3 2 2 1 1 4 2 3 2 3 4 3
13 13 13 12 12 12 8 8 6 10 9 6 4 2 1 1 2 2 2 2 3 0 1 5 3 3 4 3 1 2 1 3 2 3 2 3 2 3 1 2 4 6 3 4 3 6 8
11 12 10 9 7 7 5 6 8 7 7 8 11 7 3 1 2 5 4 5 5 4 4 2 2 2 2 2 0 1 2 1 2 3 2 3 5 3 6 4 4 6 3 7 7 11 7
Wind_Direction
338 335 334 330 327 325 323 318 320 317 323 325 330 326 325 322 324 327 322 315 267 254 257 218 216 196 170 199 209 171 168 174 195 160 178 189 200 210 218 245 266 257 257 260 265 275 274
340 337 328 325 320 315 313 313 312 317 318 321 321 320 322 322 323 321 324 319 309 248 239 211 209 175 177 216 179 199 191 201 179 173 184 203 215 233 299 261 260 289 297 290 287 277 276
335 329 324 315 314 307 305 308 305 313 318 325 325 317 321 325 324 324 326 315 302 258 223 215 210 181 189 189 182 171 177 164 166 188 183 199 230 219 307 322 291 281 295 293 271 265 260
329 323 317 312 306 298 299 295 299 302 309 314 316 322 327 326 326 329 331 324 301 241 206 198 181 162 226 161 142 173 169 162 175 190 212 219 225 231 261 275 305 297 294 301 217 213 240
328 323 314 309 295 294 298 291 301 316 314 308 310 326 333 328 333 334 334 324 348 180 182 172 164 171 230 175 182 181 210 166 167 176 203 207 194 222 241 227 283 229 268 252 298 307 225
333 331 326 324 320 314 291 290 335 329 322 313 320 326 328 332 339 342 334 312 70 149 140 145 164 195 178 178 174 165 182 184 176 183 180 189 192 227 226 214 236 228 241 236 275 282 315
338 339 342 341 332 313 288 296 340 326 322 331 324 325 329 334 339 346 340 336 353 134 152 204 162 78 139 137 141 165 184 177 151 175 192 203 171 215 215 221 241 276 277 277 282 283 286
352 352 352 337 329 8 1 15 4 349 343 332 325 327 329 333 352 17 12 27 335 314 351 158 161 87 138 140 120 158 156 143 182 205 209 144 237 233 229 231 239 267 274 279 279 270 245
0 358 356 351 345 8 14 4 357 354 344 339 333 331 334 334 30 36 9 19 329 252 210 197 200 148 148 149 146 175 172 195 203 221 205 218 235 233 215 239 254 263 263 271 259 293 269
3 0 360 9 15 13 8 2 356 351 345 342 339 337 337 351 98 7 63 327 341 170 150 105 158 172 154 141 216 188 185 205 212 233 230 245 250 252 244 255 237 272 252 286 304 276 273
2 6 12 8 8 6 7 355 349 349 349 343 343 346 349 17 31 23 340 333 347 246 109 117 107 146 159 164 140 163 194 210 241 234 191 238 273 334 300 228 301 254 330 315 293 256 292
3 4 6 11 8 1 356 356 354 351 348 343 343 341 341 12 19 333 336 319 137 0 79 119 130 164 137 216 125 137 152 232 273 304 254 254 276 270 261 301 268 278 297 290 270 236 249
1 2 9 10 5 2 1 360 354 344 340 334 313 293 298 345 2 344 353 101 65 37 193 143 143 149 151 164 135 168 184 182 242 256 253 248 203 281 243 281 210 209 283 287 291 191 309
1 2 10 10 3 3 1 0 1 1 9 0 339 117 183 170 67 34 38 44 41 28 66 136 133 123 176 159 223 193 164 189 202 232 313 298 33 233 180 241 294 262 147 294 302 356 323
3 2 9 6 3 2 2 4 6 19 37 53 98 103 110 117 95 55 7 39 27 32 324 106 118 86 89 199 188 113 156 210 216 194 218 334 0 265 222 241 199 211 242 225 262 254 44
4 0 6 5 4 2 5 7 12 27 55 80 78 77 83 85 66 4 55 40 46 33 53 272 133 229 134 106 70 145 231 157 221 203 203 349 319 281 280 234 238 203 304 358 263 341 39
5 0 7 4 7 5 9 12 23 37 75 30 39 74 77 53 6 29 43 44 2 329 355 39 15 126 111 164 217 210 131 29 349 270 176 185 247 287 312 314 284 334 291 241 238 177 120
3 4 6 5 8 6 8 16 19 26 43 44 47 56 23 19 27 11 29 347 353 319 352 5 285 46 54 110 43 94 96 6 349 339 329 195 248 285 276 262 255 274 282 246 100 325 68
0 3 1 13 6 1 6 8 16 17 9 12 66 70 31 27 41 -0 52 21 14 347 330 350 9 4 9 41 79 57 71 305 342 25 19 338 3 5 338 342 353 341 317 302 121 50 4
358 358 357 11 6 358 357 4 2 13 14 33 63 50 23 27 24 326 57 13 345 328 283 298 290 304 21 46 46 76 67 273 302 301 276 332 39 104 155 226 255 328 342 358 74 79 96
357 356 356 357 10 2 355 1 4 359 7 21 43 73 26 17 356 26 40 341 346 353 313 318 12 42 48 34 41 30 340 334 318 358 12 95 51 37 17 15 1 6 360 8 54 134 92
353 355 351 353 360 4 355 353 5 6 6 58 50 47 82 38 344 5 18 340 343 358 344 359 34 25 58 67 45 38 345 19 46 329 24 27 60 28 9 11 50 30 9 19 26 42 73
349 349 350 347 349 352 353 349 355 10 16 73 66 43 2 4 326 47 351 314 301 347 27 39 343 70 31 342 324 314 77 58 40 44 4 72 117 62 321 336 354 18 341 2 16 35 132
345 346 347 344 346 345 345 339 337 351 39 90 93 49 24 4 26 73 319 322 321 347 342 344 19 70 324 323 317 141 98 84 56 10 41 63 80 91 232 8 36 248 302 339 72 29 59
339 342 343 343 343 349 341 339 338 282 92 80 92 91 24 107 350 292 255 278 309 330 23 7 15 359 339 328 24 10 338 348 13 18 1 32 88 51 98 101 256 290 282 15 36 315 5
331 337 341 343 344 351 345 354 8 143 150 134 89 54 72 71 314 311 311 349 351 14 356 344 325 8 5 37 33 41 356 318 316 339 311 6 77 110 95 110 219 250 57 43 26 321 325
326 331 336 343 347 359 10 29 51 100 106 102 96 51 5 17 329 4 15 312 350 22 270 317 336 347 5 25 45 90 280 250 302 315 325 346 6 131 212 166 285 238 133 95 105 232 138
319 323 328 336 349 13 40 46 79 97 83 71 37 326 282 309 285 246 264 292 292 220 164 331 345 334 3 32 84 274 149 262 352 249 204 186 156 218 139 97 263 184 143 173 191 136 139
313 313 316 322 339 16 60 94 106 89 82 53 39 47 81 321 287 292 281 270 263 277 313 301 291 322 349 63 284 331 311 336 191 281 335 277 185 200 174 216 212 177 173 151 170 163 163